This demonstration page uses our WeatherBlox Daily Observations layout. Learn more.

Left ArrowRight Arrow

34.16533, -84.80231

Hourly Observations for December 11, 2017

Temp ( °F °C ) Dew Point ( °F °C ) Humidity (%) Winds ( mph kmh ) Pressure ( in mb ) Visibility ( mi km ) Precip ( " mm )
12:53 am 00:53 Clear 26 -3.3 26 -3.3 100 100 Calm 30.26 1025 10 16 0.00 0.00
1:53 am 01:53 Clear 25 -3.9 25 -3.9 100 100 Calm 30.24 1024 9 14 0.00 0.00
2:53 am 02:53 Clear 24 -4.4 24 -4.4 100 100 Calm 30.22 1024 8 13 0.00 0.00
3:53 am 03:53 Clear 24 -4.4 24 -4.4 100 100 Calm 30.22 1023 7 11 0.00 0.00
4:53 am 04:53 Clear 24 -4.4 24 -4.4 100 100 Calm 30.21 1023 8 13 0.00 0.00
5:53 am 05:53 Clear 23 -5 23 -5 100 100 Calm 30.21 1023 10 16 0.00 0.00
6:53 am 06:53 Clear 23 -5 23 -5 100 100 Calm 30.22 1023 10 16 0.00 0.00
7:53 am 07:53 Sunny 22 -5.6 22 -5.6 100 100 Calm 30.22 1023 10 16 0.00 0.00
8:53 am 08:53 Sunny 25 -3.9 25 -3.9 100 100 Calm 30.21 1023 10 16 0.00 0.00
9:53 am 09:53 Sunny 34 1.1 29 -1.7 82 82 Calm 30.21 1023 10 16 0.00 0.00
10:53 am 10:53 Sunny 40 4.4 31 -0.6 70 70 Calm 30.19 1023 10 16 0.00 0.00
11:53 am 11:53 Sunny 44 6.7 31 -0.6 60 60 Calm 30.16 1022 10 16 0.00 0.00
12:53 pm 12:53 Sunny 47 8.3 32 0 56 56 NNE 6 9 30.11 1020 10 16 0.00 0.00
1:53 pm 13:53 Sunny 50 10 32 0 50 50 Calm 30.08 1019 10 16 0.00 0.00
2:53 pm 14:53 Sunny 53 11.7 32 0 45 45 Calm 30.05 1018 10 16 0.00 0.00
3:53 pm 15:53 Sunny 54 12.2 36 2.2 51 51 Calm 30.04 1017 10 16 0.00 0.00
4:53 pm 16:53 Sunny 45 7.2 38 3.3 77 77 Calm 30.02 1017 10 16 0.00 0.00
5:53 pm 17:53 Clear 43 6.1 36 2.2 76 76 Calm 30.02 1017 10 16 0.00 0.00
6:53 pm 18:53 Clear 41 5 35 1.7 79 79 Calm 30.02 1017 10 16 0.00 0.00
7:53 pm 19:53 Clear 36 2.2 34 1.1 93 93 Calm 30.02 1017 10 16 0.00 0.00
8:53 pm 20:53 Clear 32 0 32 0 100 100 Calm 30.01 1016 10 16 0.00 0.00
9:53 pm 21:53 Clear 31 -0.6 31 -0.6 100 100 Calm 29.98 1015 10 16 0.00 0.00
10:53 pm 22:53 Clear 31 -0.6 31 -0.6 100 100 Calm 29.97 1015 10 16 0.00 0.00
11:53 pm 23:53 Clear 30 -1.1 30 -1.1 100 100 Calm 29.95 1014 10 16 0.00 0.00

Powered by AerisWeather